Location: Agendoh
(31.0664°N, 8.9343°W)
Time: 14:13:18
(UTC+00:00)

Lacrosse 5 - Pass Details

Date: 05 July 2022
Orbit: 714 x 724 km, 57.0° (Epoch: 09 March)

Event Time Altitude Azimuth Distance (km) Brightness Sun altitude
Rises 21:12:32 0° 326° (NNW) 3,137 6.7 -16.7°
Reaches altitude 10° 21:14:58 10° 331° (NNW) 2,213 5.5 -17.1°
Maximum altitude 21:20:00 58° 50° (NE) 837 2.1 -17.9°
Enters shadow 21:22:05 33° 115° (ESE) 1,193 2.5 -18.2°
